Location: Graswijk
(52.9667°N, 6.5500°E)
Time: 19:59:46
(UTC+00:00)

TSX-5 - Pass Details

Date: 15 May 2026
Orbit: 387 x 993 km, 68.9° (Epoch: 6 June)

Event Time Altitude Azimuth Distance (km) Brightness Sun altitude
Rises 22:24:03 0° 320° (NW) 2,293 8.2 -16.6°
Reaches altitude 10° 22:26:04 10° 313° (NW) 1,451 6.9 -16.7°
Maximum altitude 22:29:04 43° 240° (WSW) 602 3.9 -16.8°
Enters shadow 22:29:40 38° 209° (SSW) 665 3.9 -16.8°
